HIMAWARI-8

Last updated on Wed Mar 11 2026 00:02:26 GMT+0000 (Coordinated Universal Time)

1 40267U 14060A 26069.53157021 -.00000274 00000+0 00000+0 0 9999 2 40267 0.0094 202.5159 0000349 120.0100 177.7091 1.00273180 41771
UTC large
Height (km)
Speed (km/s)
/
Latitude / Longitude
Inclination (degrees)
Orbital Period (minutes)
Azimuth
Elevation
Range (km)
Doppler Factor

Next 0 passes for location: London (51.5072 / 0.1276)

Sorry there are no passes over London.